Time,TemperatureF,DewpointF,PressureIn,WindDirection,WindDirectionDegrees,WindSpeedMPH,WindSpeedGustMPH,Humidity,HourlyPrecipIn,Conditions,Clouds,dailyrainin,SoftwareType,DateUTC
2013-06-22 00:01:00,69.5,60.4,30.11,North,0,0.0,0.0,73,0.00,,,0.00,WUHU216HW,2013-06-22 04:01:00,
2013-06-22 00:02:00,69.5,60.4,30.10,North,0,0.0,0.0,73,0.00,,,0.00,WUHU216HW,2013-06-22 04:02:00,
2013-06-22 00:07:00,69.3,60.2,30.10,North,0,0.0,0.0,73,0.00,,,0.00,WUHU216HW,2013-06-22 04:07:00,
2013-06-22 00:12:00,69.3,60.2,30.11,North,0,0.0,0.0,73,0.00,,,0.00,WUHU216HW,2013-06-22 04:12:00,
2013-06-22 00:17:00,69.1,60.0,30.11,North,0,0.0,0.0,73,0.00,,,0.00,WUHU216HW,2013-06-22 04:17:00,
2013-06-22 00:22:00,69.1,60.0,30.11,North,0,0.0,0.0,73,0.00,,,0.00,WUHU216HW,2013-06-22 04:22:00,
2013-06-22 00:27:00,68.9,60.3,30.11,North,0,0.0,0.0,74,0.00,,,0.00,WUHU216HW,2013-06-22 04:27:00,
2013-06-22 00:32:00,68.8,60.1,30.11,North,0,0.0,0.0,74,0.00,,,0.00,WUHU216HW,2013-06-22 04:32:00,
2013-06-22 00:37:00,68.8,60.1,30.10,North,0,0.0,0.0,74,0.00,,,0.00,WUHU216HW,2013-06-22 04:37:00,
2013-06-22 00:42:00,68.6,59.9,30.10,North,0,0.0,0.0,74,0.00,,,0.00,WUHU216HW,2013-06-22 04:42:00,
2013-06-22 00:48:00,68.6,59.9,30.10,North,0,0.0,0.0,74,0.00,,,0.00,WUHU216HW,2013-06-22 04:48:00,
2013-06-22 00:53:00,68.4,59.8,30.10,North,0,0.0,0.0,74,0.00,,,0.00,WUHU216HW,2013-06-22 04:53:00,
2013-06-22 00:58:00,68.4,59.8,30.10,North,0,0.0,0.0,74,0.00,,,0.00,WUHU216HW,2013-06-22 04:58:00,
2013-06-22 01:03:00,68.2,59.7,30.10,North,0,0.0,0.0,74,0.00,,,0.00,WUHU216HW,2013-06-22 05:03:00,
2013-06-22 01:08:00,68.2,59.7,30.10,North,0,0.0,0.0,74,0.00,,,0.00,WUHU216HW,2013-06-22 05:08:00,
2013-06-22 01:13:00,68.0,59.5,30.10,North,0,0.0,0.0,74,0.00,,,0.00,WUHU216HW,2013-06-22 05:13:00,
2013-06-22 01:18:00,68.0,59.5,30.09,North,0,0.0,0.0,74,0.00,,,0.00,WUHU216HW,2013-06-22 05:18:00,
2013-06-22 01:23:00,67.9,59.3,30.09,North,0,0.0,0.0,74,0.00,,,0.00,WUHU216HW,2013-06-22 05:23:00,
2013-06-22 01:28:00,67.7,59.5,30.09,North,0,0.0,0.0,75,0.00,,,0.00,WUHU216HW,2013-06-22 05:28:00,
2013-06-22 01:33:00,67.7,59.5,30.10,North,0,0.0,0.0,75,0.00,,,0.00,WUHU216HW,2013-06-22 05:33:00,
2013-06-22 01:39:00,67.5,59.3,30.09,North,0,0.0,0.0,75,0.00,,,0.00,WUHU216HW,2013-06-22 05:39:00,
2013-06-22 01:44:00,67.3,59.1,30.09,North,0,0.0,0.0,75,0.00,,,0.00,WUHU216HW,2013-06-22 05:44:00,
2013-06-22 01:49:00,67.3,59.1,30.09,North,0,0.0,0.0,75,0.00,,,0.00,WUHU216HW,2013-06-22 05:49:00,
2013-06-22 01:54:00,67.1,59.0,30.09,North,0,0.0,0.0,75,0.00,,,0.00,WUHU216HW,2013-06-22 05:54:00,
2013-06-22 01:59:00,67.1,59.3,30.09,North,0,0.0,0.0,76,0.00,,,0.00,WUHU216HW,2013-06-22 05:59:00,
2013-06-22 02:04:00,67.0,59.1,30.09,North,0,0.0,0.0,76,0.00,,,0.00,WUHU216HW,2013-06-22 06:04:00,
2013-06-22 02:09:00,67.0,59.1,30.09,North,0,0.0,0.0,76,0.00,,,0.00,WUHU216HW,2013-06-22 06:09:00,
2013-06-22 02:14:00,67.0,59.1,30.09,North,0,0.0,0.0,76,0.00,,,0.00,WUHU216HW,2013-06-22 06:14:00,
2013-06-22 02:20:00,67.0,59.5,30.09,North,0,0.0,0.0,77,0.00,,,0.00,WUHU216HW,2013-06-22 06:20:00,
2013-06-22 02:25:00,66.8,59.3,30.09,North,0,0.0,0.0,77,0.00,,,0.00,WUHU216HW,2013-06-22 06:25:00,
2013-06-22 02:30:00,66.8,59.3,30.09,North,0,0.0,0.0,77,0.00,,,0.00,WUHU216HW,2013-06-22 06:30:00,
2013-06-22 02:35:00,66.8,59.3,30.09,North,0,0.0,0.0,77,0.00,,,0.00,WUHU216HW,2013-06-22 06:35:00,
2013-06-22 02:40:00,66.6,59.1,30.09,North,0,0.0,0.0,77,0.00,,,0.00,WUHU216HW,2013-06-22 06:40:00,
2013-06-22 02:45:00,66.6,59.1,30.09,North,0,0.0,0.0,77,0.00,,,0.00,WUHU216HW,2013-06-22 06:45:00,
2013-06-22 02:50:00,66.6,59.1,30.09,North,0,0.0,0.0,77,0.00,,,0.00,WUHU216HW,2013-06-22 06:50:00,
2013-06-22 02:55:00,66.6,59.1,30.09,North,0,0.0,0.0,77,0.00,,,0.00,WUHU216HW,2013-06-22 06:55:00,
2013-06-22 03:00:00,66.6,59.1,30.08,North,0,0.0,0.0,77,0.00,,,0.00,WUHU216HW,2013-06-22 07:00:00,
2013-06-22 03:06:00,66.6,59.1,30.08,North,0,0.0,0.0,77,0.00,,,0.00,WUHU216HW,2013-06-22 07:06:00,
2013-06-22 03:11:00,66.4,59.0,30.08,North,0,0.0,0.0,77,0.00,,,0.00,WUHU216HW,2013-06-22 07:11:00,
2013-06-22 03:16:00,66.4,59.0,30.08,North,0,0.0,0.0,77,0.00,,,0.00,WUHU216HW,2013-06-22 07:16:00,
2013-06-22 03:21:00,66.4,59.4,30.08,North,0,0.0,0.0,78,0.00,,,0.00,WUHU216HW,2013-06-22 07:21:00,
2013-06-22 03:26:00,66.2,59.2,30.08,North,0,0.0,0.0,78,0.00,,,0.00,WUHU216HW,2013-06-22 07:26:00,
2013-06-22 03:31:00,66.2,59.2,30.08,North,0,0.0,0.0,78,0.00,,,0.00,WUHU216HW,2013-06-22 07:31:00,
2013-06-22 03:36:00,66.2,59.2,30.08,North,0,0.0,0.0,78,0.00,,,0.00,WUHU216HW,2013-06-22 07:36:00,
2013-06-22 03:41:00,66.2,59.2,30.08,North,0,0.0,0.0,78,0.00,,,0.00,WUHU216HW,2013-06-22 07:41:00,
2013-06-22 03:46:00,66.2,59.2,30.08,North,0,0.0,0.0,78,0.00,,,0.00,WUHU216HW,2013-06-22 07:46:00,
2013-06-22 03:51:00,66.1,59.1,30.08,North,0,0.0,0.0,78,0.00,,,0.00,WUHU216HW,2013-06-22 07:51:00,
2013-06-22 03:57:00,66.1,59.1,30.08,North,0,0.0,0.0,78,0.00,,,0.00,WUHU216HW,2013-06-22 07:57:00,
2013-06-22 04:02:00,66.1,59.1,30.08,North,0,0.0,0.0,78,0.00,,,0.00,WUHU216HW,2013-06-22 08:02:00,
2013-06-22 04:07:00,65.9,59.2,30.08,North,0,0.0,0.0,79,0.00,,,0.00,WUHU216HW,2013-06-22 08:07:00,
2013-06-22 04:12:00,65.9,59.2,30.08,North,0,0.0,0.0,79,0.00,,,0.00,WUHU216HW,2013-06-22 08:12:00,
2013-06-22 04:17:00,65.9,59.2,30.08,North,0,0.0,0.0,79,0.00,,,0.00,WUHU216HW,2013-06-22 08:17:00,
2013-06-22 04:22:00,65.9,59.2,30.08,North,0,0.0,0.0,79,0.00,,,0.00,WUHU216HW,2013-06-22 08:22:00,
2013-06-22 04:27:00,65.9,59.2,30.08,North,0,0.0,0.0,79,0.00,,,0.00,WUHU216HW,2013-06-22 08:27:00,
2013-06-22 04:32:00,65.9,59.2,30.08,North,0,0.0,0.0,79,0.00,,,0.00,WUHU216HW,2013-06-22 08:32:00,
2013-06-22 04:37:00,65.9,59.2,30.07,North,0,0.0,0.0,79,0.00,,,0.00,WUHU216HW,2013-06-22 08:37:00,
2013-06-22 04:43:00,65.9,59.6,30.08,North,0,0.0,0.0,80,0.00,,,0.00,WUHU216HW,2013-06-22 08:43:00,
2013-06-22 04:48:00,65.9,59.6,30.08,North,0,0.0,0.0,80,0.00,,,0.00,WUHU216HW,2013-06-22 08:48:00,
2013-06-22 04:53:00,65.9,59.6,30.08,North,0,0.0,0.0,80,0.00,,,0.00,WUHU216HW,2013-06-22 08:53:00,
2013-06-22 04:58:00,65.9,59.6,30.08,North,0,0.0,0.0,80,0.00,,,0.00,WUHU216HW,2013-06-22 08:58:00,
2013-06-22 05:03:00,65.9,59.6,30.08,North,0,0.0,0.0,80,0.00,,,0.00,WUHU216HW,2013-06-22 09:03:00,
2013-06-22 05:08:00,65.9,59.6,30.08,North,0,0.0,0.0,80,0.00,,,0.00,WUHU216HW,2013-06-22 09:08:00,
2013-06-22 05:13:00,65.9,59.6,30.08,North,0,0.0,0.0,80,0.00,,,0.00,WUHU216HW,2013-06-22 09:13:00,
2013-06-22 05:18:00,65.9,59.6,30.08,North,0,0.0,0.0,80,0.00,,,0.00,WUHU216HW,2013-06-22 09:18:00,
2013-06-22 05:23:00,65.9,59.6,30.08,North,0,0.0,0.0,80,0.00,,,0.00,WUHU216HW,2013-06-22 09:23:00,
2013-06-22 05:29:00,65.9,59.6,30.08,North,0,0.0,0.0,80,0.00,,,0.00,WUHU216HW,2013-06-22 09:29:00,
2013-06-22 05:34:00,65.9,59.6,30.09,North,0,0.0,0.0,80,0.00,,,0.00,WUHU216HW,2013-06-22 09:34:00,
2013-06-22 05:39:00,65.9,59.6,30.09,North,0,0.0,0.0,80,0.00,,,0.00,WUHU216HW,2013-06-22 09:39:00,
2013-06-22 05:44:00,65.9,59.6,30.09,North,0,0.0,0.0,80,0.00,,,0.00,WUHU216HW,2013-06-22 09:44:00,
2013-06-22 05:49:00,65.9,59.6,30.09,North,0,0.0,0.0,80,0.00,,,0.00,WUHU216HW,2013-06-22 09:49:00,
2013-06-22 05:54:00,65.9,59.6,30.09,North,0,0.0,0.0,80,0.00,,,0.00,WUHU216HW,2013-06-22 09:54:00,
2013-06-22 05:59:00,65.9,59.6,30.09,North,0,0.0,0.0,80,0.00,,,0.00,WUHU216HW,2013-06-22 09:59:00,
2013-06-22 06:04:00,65.9,59.6,30.09,North,0,0.0,0.0,80,0.00,,,0.00,WUHU216HW,2013-06-22 10:04:00,
2013-06-22 06:09:00,65.9,59.6,30.10,North,0,0.0,0.0,80,0.00,,,0.00,WUHU216HW,2013-06-22 10:09:00,
2013-06-22 06:14:00,65.9,60.0,30.10,North,0,0.0,0.0,81,0.00,,,0.00,WUHU216HW,2013-06-22 10:14:00,
2013-06-22 06:20:00,66.1,60.1,30.10,North,0,0.0,0.0,81,0.00,,,0.00,WUHU216HW,2013-06-22 10:20:00,
2013-06-22 06:25:00,66.1,60.1,30.10,North,0,0.0,0.0,81,0.00,,,0.00,WUHU216HW,2013-06-22 10:25:00,
2013-06-22 06:30:00,66.2,60.3,30.10,North,0,0.0,0.0,81,0.00,,,0.00,WUHU216HW,2013-06-22 10:30:00,
2013-06-22 06:35:00,66.4,60.5,30.11,North,0,0.0,0.0,81,0.00,,,0.00,WUHU216HW,2013-06-22 10:35:00,
2013-06-22 06:40:00,66.6,60.7,30.10,North,0,0.0,0.0,81,0.00,,,0.00,WUHU216HW,2013-06-22 10:40:00,
2013-06-22 06:45:00,66.6,60.7,30.10,North,0,0.0,0.0,81,0.00,,,0.00,WUHU216HW,2013-06-22 10:45:00,
2013-06-22 06:50:00,66.8,60.9,30.09,North,0,0.0,0.0,81,0.00,,,0.00,WUHU216HW,2013-06-22 10:50:00,
2013-06-22 06:55:00,66.8,60.9,30.10,North,0,0.0,0.0,81,0.00,,,0.00,WUHU216HW,2013-06-22 10:55:00,
2013-06-22 07:00:00,67.0,61.0,30.10,North,0,0.0,0.0,81,0.00,,,0.00,WUHU216HW,2013-06-22 11:00:00,
2013-06-22 07:05:00,67.0,61.0,30.10,North,0,0.0,0.0,81,0.00,,,0.00,WUHU216HW,2013-06-22 11:05:00,
2013-06-22 07:11:00,67.1,61.2,30.10,North,0,0.0,0.0,81,0.00,,,0.00,WUHU216HW,2013-06-22 11:11:00,
2013-06-22 07:16:00,67.3,61.4,30.10,North,0,0.0,0.0,81,0.00,,,0.00,WUHU216HW,2013-06-22 11:16:00,
2013-06-22 07:21:00,67.3,61.7,30.10,North,0,0.0,0.0,82,0.00,,,0.00,WUHU216HW,2013-06-22 11:21:00,
2013-06-22 07:26:00,67.3,61.7,30.10,North,0,0.0,0.0,82,0.00,,,0.00,WUHU216HW,2013-06-22 11:26:00,
2013-06-22 07:31:00,67.5,61.8,30.11,North,0,0.0,0.0,82,0.00,,,0.00,WUHU216HW,2013-06-22 11:31:00,
2013-06-22 07:36:00,67.7,62.0,30.11,North,0,0.0,0.0,82,0.00,,,0.00,WUHU216HW,2013-06-22 11:36:00,
2013-06-22 07:41:00,67.9,62.2,30.11,North,0,0.0,0.0,82,0.00,,,0.00,WUHU216HW,2013-06-22 11:41:00,
2013-06-22 07:46:00,68.0,62.4,30.11,North,0,0.0,0.0,82,0.00,,,0.00,WUHU216HW,2013-06-22 11:46:00,
2013-06-22 07:51:00,68.4,62.7,30.11,North,0,0.0,0.0,82,0.00,,,0.00,WUHU216HW,2013-06-22 11:51:00,
2013-06-22 07:56:00,69.5,63.7,30.11,North,0,0.0,0.0,82,0.00,,,0.00,WUHU216HW,2013-06-22 11:56:00,
2013-06-22 08:01:00,70.4,64.3,30.11,North,0,0.0,0.0,81,0.00,,,0.00,WUHU216HW,2013-06-22 12:01:00,
2013-06-22 08:06:00,71.6,65.5,30.11,North,0,0.0,0.0,81,0.00,,,0.00,WUHU216HW,2013-06-22 12:06:00,
2013-06-22 08:11:00,73.3,67.2,30.11,North,0,0.0,0.0,81,0.00,,,0.00,WUHU216HW,2013-06-22 12:11:00,
2013-06-22 08:16:00,75.2,68.0,30.11,North,0,0.0,0.0,78,0.00,,,0.00,WUHU216HW,2013-06-22 12:16:00,
2013-06-22 08:22:00,75.6,67.5,30.11,North,0,0.0,0.0,76,0.00,,,0.00,WUHU216HW,2013-06-22 12:22:00,
2013-06-22 08:27:00,75.8,67.3,30.11,North,0,0.0,0.0,75,0.00,,,0.00,WUHU216HW,2013-06-22 12:27:00,
2013-06-22 08:32:00,75.6,67.2,30.11,North,0,0.0,0.0,75,0.00,,,0.00,WUHU216HW,2013-06-22 12:32:00,
2013-06-22 08:37:00,76.5,68.0,30.11,North,0,0.0,0.0,75,0.00,,,0.00,WUHU216HW,2013-06-22 12:37:00,
2013-06-22 08:42:00,77.8,68.8,30.10,North,0,0.0,0.0,74,0.00,,,0.00,WUHU216HW,2013-06-22 12:42:00,
2013-06-22 08:47:00,78.8,69.4,30.10,North,0,0.0,0.0,73,0.00,,,0.00,WUHU216HW,2013-06-22 12:47:00,
2013-06-22 08:52:00,79.0,68.8,30.10,North,0,0.0,0.0,71,0.00,,,0.00,WUHU216HW,2013-06-22 12:52:00,
2013-06-22 08:57:00,79.2,68.9,30.11,North,0,0.0,0.0,71,0.00,,,0.00,WUHU216HW,2013-06-22 12:57:00,
2013-06-22 09:02:00,80.1,69.8,30.10,North,0,0.0,0.0,71,0.00,,,0.00,WUHU216HW,2013-06-22 13:02:00,
2013-06-22 09:07:00,80.6,70.0,30.10,North,0,0.0,0.0,70,0.00,,,0.00,WUHU216HW,2013-06-22 13:07:00,
2013-06-22 09:12:00,80.6,69.6,30.10,North,0,0.0,0.0,69,0.00,,,0.00,WUHU216HW,2013-06-22 13:12:00,
2013-06-22 09:18:00,80.3,69.2,30.10,North,0,0.0,0.0,69,0.00,,,0.00,WUHU216HW,2013-06-22 13:18:00,
2013-06-22 09:23:00,79.7,68.7,30.10,North,0,0.0,0.0,69,0.00,,,0.00,WUHU216HW,2013-06-22 13:23:00,
2013-06-22 09:28:00,79.9,68.9,30.09,North,0,0.0,0.0,69,0.00,,,0.00,WUHU216HW,2013-06-22 13:28:00,
2013-06-22 09:33:00,80.3,69.2,30.09,North,0,0.0,0.0,69,0.00,,,0.00,WUHU216HW,2013-06-22 13:33:00,
2013-06-22 09:38:00,80.5,68.9,30.09,North,0,0.0,0.0,68,0.00,,,0.00,WUHU216HW,2013-06-22 13:38:00,
2013-06-22 09:43:00,80.5,68.9,30.09,North,0,0.0,0.0,68,0.00,,,0.00,WUHU216HW,2013-06-22 13:43:00,
2013-06-22 09:48:00,80.6,69.1,30.09,North,0,0.0,0.0,68,0.00,,,0.00,WUHU216HW,2013-06-22 13:48:00,
2013-06-22 09:53:00,80.6,69.1,30.09,North,0,0.0,0.0,68,0.00,,,0.00,WUHU216HW,2013-06-22 13:53:00,
2013-06-22 09:59:00,81.0,69.0,30.09,North,0,0.0,0.0,67,0.00,,,0.00,WUHU216HW,2013-06-22 13:59:00,
2013-06-22 10:04:00,81.2,68.7,30.09,North,0,0.0,0.0,66,0.00,,,0.00,WUHU216HW,2013-06-22 14:04:00,
2013-06-22 10:09:00,81.0,68.6,30.08,North,0,0.0,0.0,66,0.00,,,0.00,WUHU216HW,2013-06-22 14:09:00,
2013-06-22 10:14:00,81.2,68.7,30.08,North,0,0.0,0.0,66,0.00,,,0.00,WUHU216HW,2013-06-22 14:14:00,
2013-06-22 10:19:00,81.4,69.3,30.08,North,0,0.0,0.0,67,0.00,,,0.00,WUHU216HW,2013-06-22 14:19:00,
2013-06-22 10:24:00,81.9,69.9,30.09,North,0,0.0,0.0,67,0.00,,,0.00,WUHU216HW,2013-06-22 14:24:00,
2013-06-22 10:29:00,82.4,69.8,30.09,North,0,0.0,0.0,66,0.00,,,0.00,WUHU216HW,2013-06-22 14:29:00,
2013-06-22 10:34:00,82.1,69.0,30.09,North,0,0.0,0.0,65,0.00,,,0.00,WUHU216HW,2013-06-22 14:34:00,
2013-06-22 10:39:00,82.3,69.7,30.09,North,0,0.0,0.0,66,0.00,,,0.00,WUHU216HW,2013-06-22 14:39:00,
2013-06-22 10:44:00,82.1,69.0,30.10,North,0,0.0,0.0,65,0.00,,,0.00,WUHU216HW,2013-06-22 14:44:00,
2013-06-22 10:50:00,81.7,68.8,30.10,North,0,0.0,0.0,65,0.00,,,0.00,WUHU216HW,2013-06-22 14:50:00,
2013-06-22 10:55:00,81.2,68.2,30.10,North,0,0.0,0.0,65,0.00,,,0.00,WUHU216HW,2013-06-22 14:55:00,
2013-06-22 11:00:00,80.8,68.4,30.11,North,0,0.0,0.0,66,0.00,,,0.00,WUHU216HW,2013-06-22 15:00:00,
2013-06-22 11:05:00,80.6,68.2,30.11,North,0,0.0,0.0,66,0.00,,,0.00,WUHU216HW,2013-06-22 15:05:00,
2013-06-22 11:10:00,80.3,67.9,30.11,North,0,0.0,0.0,66,0.00,,,0.00,WUHU216HW,2013-06-22 15:10:00,
2013-06-22 11:15:00,80.5,68.0,30.11,North,0,0.0,0.0,66,0.00,,,0.00,WUHU216HW,2013-06-22 15:15:00,
2013-06-22 11:20:00,81.0,68.6,30.11,North,0,0.0,0.0,66,0.00,,,0.00,WUHU216HW,2013-06-22 15:20:00,
2013-06-22 11:25:00,81.5,69.0,30.11,North,0,0.0,0.0,66,0.00,,,0.00,WUHU216HW,2013-06-22 15:25:00,
2013-06-22 11:30:00,81.9,69.4,30.11,North,0,0.0,0.0,66,0.00,,,0.00,WUHU216HW,2013-06-22 15:30:00,
2013-06-22 11:35:00,81.9,69.4,30.11,North,0,0.0,0.0,66,0.00,,,0.00,WUHU216HW,2013-06-22 15:35:00,
2013-06-22 11:40:00,81.9,69.4,30.12,North,0,0.0,0.0,66,0.00,,,0.00,WUHU216HW,2013-06-22 15:40:00,
2013-06-22 11:45:00,82.1,69.0,30.11,North,0,0.0,0.0,65,0.00,,,0.00,WUHU216HW,2013-06-22 15:45:00,
2013-06-22 11:50:00,82.4,69.8,30.11,North,0,0.0,0.0,66,0.00,,,0.00,WUHU216HW,2013-06-22 15:50:00,
2013-06-22 11:56:00,82.8,70.2,30.11,North,0,0.0,0.0,66,0.00,,,0.00,WUHU216HW,2013-06-22 15:56:00,
2013-06-22 12:01:00,82.6,69.1,30.11,North,0,0.0,0.0,64,0.00,,,0.00,WUHU216HW,2013-06-22 16:01:00,
2013-06-22 12:06:00,82.3,68.8,30.11,North,0,0.0,0.0,64,0.00,,,0.00,WUHU216HW,2013-06-22 16:06:00,
2013-06-22 12:11:00,82.4,69.4,30.11,North,0,0.0,0.0,65,0.00,,,0.00,WUHU216HW,2013-06-22 16:11:00,
2013-06-22 12:16:00,82.6,70.0,30.11,North,0,0.0,0.0,66,0.00,,,0.00,WUHU216HW,2013-06-22 16:16:00,
2013-06-22 12:21:00,83.2,70.1,30.10,North,0,0.0,0.0,65,0.00,,,0.00,WUHU216HW,2013-06-22 16:21:00,
2013-06-22 12:26:00,83.2,69.7,30.10,North,0,0.0,0.0,64,0.00,,,0.00,WUHU216HW,2013-06-22 16:26:00,
2013-06-22 12:31:00,83.0,69.0,30.10,North,0,0.0,0.0,63,0.00,,,0.00,WUHU216HW,2013-06-22 16:31:00,
2013-06-22 12:36:00,82.8,69.8,30.10,North,0,0.0,0.0,65,0.00,,,0.00,WUHU216HW,2013-06-22 16:36:00,
2013-06-22 12:41:00,83.0,69.0,30.10,North,0,0.0,0.0,63,0.00,,,0.00,WUHU216HW,2013-06-22 16:41:00,
2013-06-22 12:46:00,83.0,69.5,30.10,North,0,0.0,0.0,64,0.00,,,0.00,WUHU216HW,2013-06-22 16:46:00,
2013-06-22 12:51:00,83.2,69.7,30.10,North,0,0.0,0.0,64,0.00,,,0.00,WUHU216HW,2013-06-22 16:51:00,
2013-06-22 12:56:00,83.3,69.4,30.10,North,0,0.0,0.0,63,0.00,,,0.00,WUHU216HW,2013-06-22 16:56:00,
2013-06-22 13:02:00,83.2,69.2,30.10,North,0,0.0,0.0,63,0.00,,,0.00,WUHU216HW,2013-06-22 17:02:00,
2013-06-22 13:07:00,83.3,69.4,30.10,North,0,0.0,0.0,63,0.00,,,0.00,WUHU216HW,2013-06-22 17:07:00,
2013-06-22 13:12:00,83.5,69.6,30.09,North,0,0.0,0.0,63,0.00,,,0.00,WUHU216HW,2013-06-22 17:12:00,
2013-06-22 13:17:00,83.7,69.8,30.09,North,0,0.0,0.0,63,0.00,,,0.00,WUHU216HW,2013-06-22 17:17:00,
2013-06-22 13:22:00,84.1,70.1,30.09,North,0,0.0,0.0,63,0.00,,,0.00,WUHU216HW,2013-06-22 17:22:00,
2013-06-22 13:27:00,84.4,70.0,30.09,North,0,0.0,0.0,62,0.00,,,0.00,WUHU216HW,2013-06-22 17:27:00,
2013-06-22 13:32:00,84.2,69.4,30.09,North,0,0.0,0.0,61,0.00,,,0.00,WUHU216HW,2013-06-22 17:32:00,
2013-06-22 13:37:00,84.2,69.8,30.09,North,0,0.0,0.0,62,0.00,,,0.00,WUHU216HW,2013-06-22 17:37:00,
2013-06-22 13:42:00,85.0,70.5,30.09,North,0,0.0,0.0,62,0.00,,,0.00,WUHU216HW,2013-06-22 17:42:00,
2013-06-22 13:47:00,85.1,70.2,30.09,North,0,0.0,0.0,61,0.00,,,0.00,WUHU216HW,2013-06-22 17:47:00,
2013-06-22 13:52:00,85.3,70.4,30.09,North,0,0.0,0.0,61,0.00,,,0.00,WUHU216HW,2013-06-22 17:52:00,
2013-06-22 13:58:00,85.5,70.6,30.08,North,0,0.0,0.0,61,0.00,,,0.00,WUHU216HW,2013-06-22 17:58:00,
2013-06-22 14:03:00,85.5,70.6,30.08,North,0,0.0,0.0,61,0.00,,,0.00,WUHU216HW,2013-06-22 18:03:00,
2013-06-22 14:08:00,85.3,69.9,30.08,North,0,0.0,0.0,60,0.00,,,0.00,WUHU216HW,2013-06-22 18:08:00,
2013-06-22 14:13:00,85.3,70.4,30.08,North,0,0.0,0.0,61,0.00,,,0.00,WUHU216HW,2013-06-22 18:13:00,
2013-06-22 14:18:00,85.3,69.9,30.08,North,0,0.0,0.0,60,0.00,,,0.00,WUHU216HW,2013-06-22 18:18:00,
2013-06-22 14:23:00,85.1,69.8,30.08,North,0,0.0,0.0,60,0.00,,,0.00,WUHU216HW,2013-06-22 18:23:00,
2013-06-22 14:28:00,85.0,69.0,30.07,North,0,0.0,0.0,59,0.00,,,0.00,WUHU216HW,2013-06-22 18:28:00,
2013-06-22 14:33:00,84.8,69.4,30.07,North,0,0.0,0.0,60,0.00,,,0.00,WUHU216HW,2013-06-22 18:33:00,
2013-06-22 14:38:00,84.6,69.8,30.07,North,0,0.0,0.0,61,0.00,,,0.00,WUHU216HW,2013-06-22 18:38:00,
2013-06-22 14:43:00,84.8,69.8,30.07,North,0,0.0,0.0,61,0.00,,,0.00,WUHU216HW,2013-06-22 18:43:00,
2013-06-22 14:49:00,85.0,69.6,30.07,North,0,0.0,0.0,60,0.00,,,0.00,WUHU216HW,2013-06-22 18:49:00,
2013-06-22 14:54:00,85.0,69.6,30.06,North,0,0.0,0.0,60,0.00,,,0.00,WUHU216HW,2013-06-22 18:54:00,
2013-06-22 14:59:00,84.8,69.8,30.06,North,0,0.0,0.0,61,0.00,,,0.00,WUHU216HW,2013-06-22 18:59:00,
2013-06-22 15:04:00,85.0,70.0,30.06,North,0,0.0,0.0,61,0.00,,,0.00,WUHU216HW,2013-06-22 19:04:00,
2013-06-22 15:09:00,85.1,70.2,30.06,North,0,0.0,0.0,61,0.00,,,0.00,WUHU216HW,2013-06-22 19:09:00,
2013-06-22 15:14:00,85.0,70.0,30.06,North,0,0.0,0.0,61,0.00,,,0.00,WUHU216HW,2013-06-22 19:14:00,
2013-06-22 15:19:00,85.1,69.8,30.05,North,0,0.0,0.0,60,0.00,,,0.00,WUHU216HW,2013-06-22 19:19:00,
2013-06-22 15:24:00,85.0,69.6,30.06,North,0,0.0,0.0,60,0.00,,,0.00,WUHU216HW,2013-06-22 19:24:00,
2013-06-22 15:29:00,84.8,69.8,30.05,North,0,0.0,0.0,61,0.00,,,0.00,WUHU216HW,2013-06-22 19:29:00,
2013-06-22 15:34:00,84.6,69.8,30.05,North,0,0.0,0.0,61,0.00,,,0.00,WUHU216HW,2013-06-22 19:34:00,
2013-06-22 15:39:00,84.4,70.0,30.04,North,0,0.0,0.0,62,0.00,,,0.00,WUHU216HW,2013-06-22 19:39:00,
2013-06-22 15:44:00,84.2,69.4,30.04,North,0,0.0,0.0,61,0.00,,,0.00,WUHU216HW,2013-06-22 19:44:00,
2013-06-22 15:49:00,84.2,68.9,30.04,North,0,0.0,0.0,60,0.00,,,0.00,WUHU216HW,2013-06-22 19:49:00,
2013-06-22 15:55:00,84.2,68.9,30.04,North,0,0.0,0.0,60,0.00,,,0.00,WUHU216HW,2013-06-22 19:55:00,
2013-06-22 16:00:00,84.2,68.9,30.04,North,0,0.0,0.0,60,0.00,,,0.00,WUHU216HW,2013-06-22 20:00:00,
2013-06-22 16:05:00,84.2,69.8,30.03,North,0,0.0,0.0,62,0.00,,,0.00,WUHU216HW,2013-06-22 20:05:00,
2013-06-22 16:10:00,83.9,69.5,30.03,North,0,0.0,0.0,62,0.00,,,0.00,WUHU216HW,2013-06-22 20:10:00,
2013-06-22 16:15:00,83.9,69.5,30.03,North,0,0.0,0.0,62,0.00,,,0.00,WUHU216HW,2013-06-22 20:15:00,
2013-06-22 16:20:00,83.7,69.8,30.03,North,0,0.0,0.0,63,0.00,,,0.00,WUHU216HW,2013-06-22 20:20:00,
2013-06-22 16:25:00,83.5,69.6,30.03,North,0,0.0,0.0,63,0.00,,,0.00,WUHU216HW,2013-06-22 20:25:00,
2013-06-22 16:30:00,83.5,69.6,30.02,North,0,0.0,0.0,63,0.00,,,0.00,WUHU216HW,2013-06-22 20:30:00,
2013-06-22 16:35:00,83.5,69.6,30.02,North,0,0.0,0.0,63,0.00,,,0.00,WUHU216HW,2013-06-22 20:35:00,
2013-06-22 16:40:00,83.5,69.6,30.02,North,0,0.0,0.0,63,0.00,,,0.00,WUHU216HW,2013-06-22 20:40:00,
2013-06-22 16:45:00,83.5,70.0,30.02,North,0,0.0,0.0,64,0.00,,,0.00,WUHU216HW,2013-06-22 20:45:00,
2013-06-22 16:51:00,83.3,70.3,30.02,North,0,0.0,0.0,65,0.00,,,0.00,WUHU216HW,2013-06-22 20:51:00,
2013-06-22 16:56:00,83.2,70.1,30.02,North,0,0.0,0.0,65,0.00,,,0.00,WUHU216HW,2013-06-22 20:56:00,
2013-06-22 17:01:00,83.2,69.7,30.02,North,0,0.0,0.0,64,0.00,,,0.00,WUHU216HW,2013-06-22 21:01:00,
2013-06-22 17:06:00,83.2,69.7,30.02,North,0,0.0,0.0,64,0.00,,,0.00,WUHU216HW,2013-06-22 21:06:00,
2013-06-22 17:11:00,83.0,69.9,30.02,North,0,0.0,0.0,65,0.00,,,0.00,WUHU216HW,2013-06-22 21:11:00,
2013-06-22 17:16:00,83.0,69.9,30.01,North,0,0.0,0.0,65,0.00,,,0.00,WUHU216HW,2013-06-22 21:16:00,
2013-06-22 17:21:00,82.8,69.8,30.02,North,0,0.0,0.0,65,0.00,,,0.00,WUHU216HW,2013-06-22 21:21:00,
2013-06-22 17:26:00,83.0,69.9,30.01,North,0,0.0,0.0,65,0.00,,,0.00,WUHU216HW,2013-06-22 21:26:00,
2013-06-22 17:31:00,82.8,69.8,30.01,North,0,0.0,0.0,65,0.00,,,0.00,WUHU216HW,2013-06-22 21:31:00,
2013-06-22 17:37:00,82.8,69.8,30.02,North,0,0.0,0.0,65,0.00,,,0.00,WUHU216HW,2013-06-22 21:37:00,
2013-06-22 17:42:00,83.0,69.9,30.02,North,0,0.0,0.0,65,0.00,,,0.00,WUHU216HW,2013-06-22 21:42:00,
2013-06-22 17:47:00,82.8,68.9,30.02,North,0,0.0,0.0,63,0.00,,,0.00,WUHU216HW,2013-06-22 21:47:00,
2013-06-22 17:52:00,82.8,68.9,30.02,North,0,0.0,0.0,63,0.00,,,0.00,WUHU216HW,2013-06-22 21:52:00,
2013-06-22 17:57:00,82.6,69.6,30.01,North,0,0.0,0.0,65,0.00,,,0.00,WUHU216HW,2013-06-22 21:57:00,
2013-06-22 18:02:00,82.6,69.1,30.01,North,0,0.0,0.0,64,0.00,,,0.00,WUHU216HW,2013-06-22 22:02:00,
2013-06-22 18:07:00,82.4,68.5,30.01,North,0,0.0,0.0,63,0.00,,,0.00,WUHU216HW,2013-06-22 22:07:00,
2013-06-22 18:12:00,82.4,68.5,30.00,North,0,0.0,0.0,63,0.00,,,0.00,WUHU216HW,2013-06-22 22:12:00,
2013-06-22 18:17:00,82.4,68.9,30.00,North,0,0.0,0.0,64,0.00,,,0.00,WUHU216HW,2013-06-22 22:17:00,
2013-06-22 18:22:00,82.4,68.9,30.00,North,0,0.0,0.0,64,0.00,,,0.00,WUHU216HW,2013-06-22 22:22:00,
2013-06-22 18:27:00,82.3,69.2,30.00,North,0,0.0,0.0,65,0.00,,,0.00,WUHU216HW,2013-06-22 22:27:00,
2013-06-22 18:33:00,82.1,69.0,30.01,North,0,0.0,0.0,65,0.00,,,0.00,WUHU216HW,2013-06-22 22:33:00,
2013-06-22 18:38:00,81.9,69.4,30.01,North,0,0.0,0.0,66,0.00,,,0.00,WUHU216HW,2013-06-22 22:38:00,
2013-06-22 18:43:00,81.9,69.4,30.00,North,0,0.0,0.0,66,0.00,,,0.00,WUHU216HW,2013-06-22 22:43:00,
2013-06-22 18:48:00,81.7,69.2,30.00,North,0,0.0,0.0,66,0.00,,,0.00,WUHU216HW,2013-06-22 22:48:00,
2013-06-22 18:53:00,81.5,69.0,30.00,North,0,0.0,0.0,66,0.00,,,0.00,WUHU216HW,2013-06-22 22:53:00,
2013-06-22 18:58:00,81.5,69.0,30.00,North,0,0.0,0.0,66,0.00,,,0.00,WUHU216HW,2013-06-22 22:58:00,
2013-06-22 19:03:00,81.4,68.9,30.00,North,0,0.0,0.0,66,0.00,,,0.00,WUHU216HW,2013-06-22 23:03:00,
2013-06-22 19:08:00,81.4,68.9,30.00,North,0,0.0,0.0,66,0.00,,,0.00,WUHU216HW,2013-06-22 23:08:00,
2013-06-22 19:13:00,81.4,68.9,30.00,North,0,0.0,0.0,66,0.00,,,0.00,WUHU216HW,2013-06-22 23:13:00,
2013-06-22 19:18:00,81.4,68.9,30.00,North,0,0.0,0.0,66,0.00,,,0.00,WUHU216HW,2013-06-22 23:18:00,
2013-06-22 19:24:00,81.4,69.3,30.00,North,0,0.0,0.0,67,0.00,,,0.00,WUHU216HW,2013-06-22 23:24:00,
2013-06-22 19:29:00,81.4,69.3,30.00,North,0,0.0,0.0,67,0.00,,,0.00,WUHU216HW,2013-06-22 23:29:00,
2013-06-22 19:34:00,81.4,68.9,30.00,North,0,0.0,0.0,66,0.00,,,0.00,WUHU216HW,2013-06-22 23:34:00,
2013-06-22 19:39:00,81.2,68.7,30.01,North,0,0.0,0.0,66,0.00,,,0.00,WUHU216HW,2013-06-22 23:39:00,
2013-06-22 19:44:00,81.2,69.1,30.00,North,0,0.0,0.0,67,0.00,,,0.00,WUHU216HW,2013-06-22 23:44:00,
2013-06-22 19:49:00,81.2,69.6,30.00,North,0,0.0,0.0,68,0.00,,,0.00,WUHU216HW,2013-06-22 23:49:00,
2013-06-22 19:54:00,81.0,69.5,30.00,North,0,0.0,0.0,68,0.00,,,0.00,WUHU216HW,2013-06-22 23:54:00,
2013-06-22 20:00:00,81.0,69.5,30.00,North,0,0.0,0.0,68,0.00,,,0.00,WUHU216HW,2013-06-23 00:00:00,
2013-06-22 20:11:00,80.6,69.6,30.00,North,0,0.0,0.0,69,0.00,,,0.00,WUHU216HW,2013-06-23 00:11:00,
2013-06-22 20:17:00,80.5,69.8,30.00,North,0,0.0,0.0,70,0.00,,,0.00,WUHU216HW,2013-06-23 00:17:00,
2013-06-22 20:22:00,80.3,69.7,30.00,North,0,0.0,0.0,70,0.00,,,0.00,WUHU216HW,2013-06-23 00:22:00,
2013-06-22 20:27:00,80.1,69.8,30.00,North,0,0.0,0.0,71,0.00,,,0.00,WUHU216HW,2013-06-23 00:27:00,
2013-06-22 20:32:00,79.9,69.7,30.00,North,0,0.0,0.0,71,0.00,,,0.00,WUHU216HW,2013-06-23 00:32:00,
2013-06-22 20:37:00,79.7,69.5,30.00,North,0,0.0,0.0,71,0.00,,,0.00,WUHU216HW,2013-06-23 00:37:00,
2013-06-22 20:42:00,79.6,69.3,30.00,North,0,0.0,0.0,71,0.00,,,0.00,WUHU216HW,2013-06-23 00:42:00,
2013-06-22 20:47:00,79.2,68.9,29.99,North,0,0.0,0.0,71,0.00,,,0.00,WUHU216HW,2013-06-23 00:47:00,
2013-06-22 20:52:00,79.2,68.9,29.99,North,0,0.0,0.0,71,0.00,,,0.00,WUHU216HW,2013-06-23 00:52:00,
2013-06-22 20:57:00,78.8,69.0,29.99,North,0,0.0,0.0,72,0.00,,,0.00,WUHU216HW,2013-06-23 00:57:00,
2013-06-22 21:02:00,78.8,69.0,29.99,North,0,0.0,0.0,72,0.00,,,0.00,WUHU216HW,2013-06-23 01:02:00,
2013-06-22 21:08:00,78.5,69.0,29.99,North,0,0.0,0.0,73,0.00,,,0.00,WUHU216HW,2013-06-23 01:08:00,
2013-06-22 21:13:00,78.5,69.0,29.99,North,0,0.0,0.0,73,0.00,,,0.00,WUHU216HW,2013-06-23 01:13:00,
2013-06-22 21:18:00,78.3,69.0,30.00,North,0,0.0,0.0,73,0.00,,,0.00,WUHU216HW,2013-06-23 01:18:00,
2013-06-22 21:23:00,78.1,68.8,30.00,North,0,0.0,0.0,73,0.00,,,0.00,WUHU216HW,2013-06-23 01:23:00,
2013-06-22 21:28:00,77.8,68.8,29.99,North,0,0.0,0.0,74,0.00,,,0.00,WUHU216HW,2013-06-23 01:28:00,
2013-06-22 21:33:00,77.8,68.8,29.99,North,0,0.0,0.0,74,0.00,,,0.00,WUHU216HW,2013-06-23 01:33:00,
2013-06-22 21:38:00,77.4,68.5,30.00,North,0,0.0,0.0,74,0.00,,,0.00,WUHU216HW,2013-06-23 01:38:00,
2013-06-22 21:43:00,77.4,68.5,30.00,North,0,0.0,0.0,74,0.00,,,0.00,WUHU216HW,2013-06-23 01:43:00,
2013-06-22 21:48:00,77.2,68.7,30.00,North,0,0.0,0.0,75,0.00,,,0.00,WUHU216HW,2013-06-23 01:48:00,
2013-06-22 21:53:00,77.0,68.5,30.00,North,0,0.0,0.0,75,0.00,,,0.00,WUHU216HW,2013-06-23 01:53:00,
2013-06-22 21:59:00,76.9,68.3,30.01,North,0,0.0,0.0,75,0.00,,,0.00,WUHU216HW,2013-06-23 01:59:00,
2013-06-22 22:04:00,76.7,68.1,30.01,North,0,0.0,0.0,75,0.00,,,0.00,WUHU216HW,2013-06-23 02:04:00,
2013-06-22 22:09:00,76.7,68.1,30.01,North,0,0.0,0.0,75,0.00,,,0.00,WUHU216HW,2013-06-23 02:09:00,
2013-06-22 22:14:00,76.7,68.5,30.01,North,0,0.0,0.0,76,0.00,,,0.00,WUHU216HW,2013-06-23 02:14:00,
2013-06-22 22:19:00,76.5,68.4,30.01,North,0,0.0,0.0,76,0.00,,,0.00,WUHU216HW,2013-06-23 02:19:00,
2013-06-22 22:24:00,76.3,68.2,30.01,North,0,0.0,0.0,76,0.00,,,0.00,WUHU216HW,2013-06-23 02:24:00,
2013-06-22 22:29:00,76.3,68.2,30.01,North,0,0.0,0.0,76,0.00,,,0.00,WUHU216HW,2013-06-23 02:29:00,
2013-06-22 22:34:00,76.1,68.4,30.01,North,0,0.0,0.0,77,0.00,,,0.00,WUHU216HW,2013-06-23 02:34:00,
2013-06-22 22:39:00,76.1,68.4,30.01,North,0,0.0,0.0,77,0.00,,,0.00,WUHU216HW,2013-06-23 02:39:00,
2013-06-22 22:44:00,76.0,68.2,30.01,North,0,0.0,0.0,77,0.00,,,0.00,WUHU216HW,2013-06-23 02:44:00,
2013-06-22 22:49:00,76.0,68.2,30.02,North,0,0.0,0.0,77,0.00,,,0.00,WUHU216HW,2013-06-23 02:49:00,
2013-06-22 22:55:00,76.0,68.2,30.01,North,0,0.0,0.0,77,0.00,,,0.00,WUHU216HW,2013-06-23 02:55:00,
2013-06-22 23:00:00,75.8,68.0,30.01,North,0,0.0,0.0,77,0.00,,,0.00,WUHU216HW,2013-06-23 03:00:00,
2013-06-22 23:05:00,75.8,68.5,30.01,North,0,0.0,0.0,78,0.00,,,0.00,WUHU216HW,2013-06-23 03:05:00,
2013-06-22 23:10:00,75.6,68.3,30.01,North,0,0.0,0.0,78,0.00,,,0.00,WUHU216HW,2013-06-23 03:10:00,
2013-06-22 23:15:00,75.6,68.3,30.00,North,0,0.0,0.0,78,0.00,,,0.00,WUHU216HW,2013-06-23 03:15:00,
2013-06-22 23:20:00,75.6,68.3,30.01,North,0,0.0,0.0,78,0.00,,,0.00,WUHU216HW,2013-06-23 03:20:00,
2013-06-22 23:25:00,75.4,68.1,30.01,North,0,0.0,0.0,78,0.00,,,0.00,WUHU216HW,2013-06-23 03:25:00,
2013-06-22 23:30:00,75.4,68.1,30.01,North,0,0.0,0.0,78,0.00,,,0.00,WUHU216HW,2013-06-23 03:30:00,
2013-06-22 23:35:00,75.2,68.0,30.01,North,0,0.0,0.0,78,0.00,,,0.00,WUHU216HW,2013-06-23 03:35:00,
2013-06-22 23:40:00,75.2,68.0,30.01,North,0,0.0,0.0,78,0.00,,,0.00,WUHU216HW,2013-06-23 03:40:00,
2013-06-22 23:46:00,75.2,68.4,30.02,North,0,0.0,0.0,79,0.00,,,0.00,WUHU216HW,2013-06-23 03:46:00,
2013-06-22 23:51:00,75.1,68.2,30.01,North,0,0.0,0.0,79,0.00,,,0.00,WUHU216HW,2013-06-23 03:51:00,
2013-06-22 23:56:00,74.9,68.1,30.02,North,0,0.0,0.0,79,0.00,,,0.00,WUHU216HW,2013-06-23 03:56:00,